[[{"header":{"parameterUnit":"m.s-1","parameterCategory":1,"la1":30.2991,"la2":30.254,"lo1":-89.0895,"lo2":-89.0444,"dy":0.0017,"dx":0.0017,"nx":28,"ny":28,"refTime":"2024-07-23T09:00:00:Z","depth":0,"parameterNumber":2,"parameterNumberName":"U-component_of_WINDS"},"data":[0,0,0,0,0,0,0,0,0,0,0,0,0,0,0,0,0,0,0,0,0,0,0,0,0,0,0,0,0,0,0,0,0,0,0,0,0,0,0,0,0,0,0,0,0,0,0,0,0,0,0,0,0,0,0,0,0,0,-0.053,-0.053,0,-0.0455,-0.0454,-0.0453,-0.0412,-0.0412,-0.0412,-0.0412,-0.0335,-0.0333,-0.0331,0,0,0,0,0,0,0,0,0,0,0,0,0,-0.0642,-0.064,-0.053,-0.053,-0.0529,-0.0455,-0.0454,-0.0453,-0.0412,-0.0412,-0.0412,-0.0412,-0.0335,-0.0333,-0.0331,0,0,0,0,0,0,0,0,0,0,0,0,0,-0.0582,-0.0639,-0.0531,-0.0499,-0.0496,-0.0455,-0.0454,-0.0452,-0.0412,-0.0412,-0.0412,-0.0412,-0.0336,-0.0333,-0.033,-0.0315,0,0,-0.0321,-0.032,0,0,0,0,0,0,0,0,-0.0586,-0.0578,-0.0505,-0.0502,-0.0497,-0.0443,-0.0465,-0.0406,-0.0412,-0.0444,-0.0412,-0.0412,-0.0371,-0.0365,-0.0351,-0.0311,-0.0308,-0.0321,-0.0319,-0.0318,-0.0317,0,0,0,0,0,0,0,-0.059,-0.0581,-0.05,-0.0504,-0.0499,-0.049,-0.0481,-0.0453,-0.0409,-0.0441,-0.0438,-0.043,-0.0369,-0.0354,-0.0349,-0.0307,-0.0321,-0.0318,-0.0317,-0.0315,-0.0251,-0.0251,0,0,0,0,0,0,-0.0599,-0.0585,-0.0503,-0.0498,-0.0542,-0.0488,-0.0478,-0.046,-0.0409,-0.0401,-0.043,-0.0428,-0.0359,-0.0352,-0.0346,-0.0325,-0.0318,-0.0315,-0.0314,-0.0251,-0.0251,-0.0251,0,0,0,0,0,0,-0.0601,-0.0592,-0.0506,-0.0541,-0.0529,-0.0486,-0.0466,-0.0459,-0.0444,-0.0401,-0.0393,-0.0423,-0.0359,-0.035,-0.0323,-0.0322,-0.0314,-0.0311,-0.0251,-0.0251,-0.0251,-0.0283,0,0,0,0,0,0,-0.0605,-0.0593,-0.0586,-0.0541,-0.0527,-0.0484,-0.0466,-0.0458,-0.0439,-0.0436,-0.0392,-0.0385,-0.0358,-0.0328,-0.032,-0.0318,-0.0309,-0.0251,-0.0251,-0.0251,-0.0282,-0.0284,-0.0286,0,0,0,0,0,-0.0609,-0.0598,-0.0586,-0.0576,-0.0518,-0.0484,-0.0476,-0.0446,-0.0439,-0.0432,-0.0405,-0.0386,-0.0323,-0.0325,-0.0316,-0.0313,-0.0251,-0.0251,-0.0251,-0.0281,-0.0284,-0.0286,0,0,0,0,0,0,-0.0644,-0.0591,-0.0578,-0.0552,-0.0523,-0.0477,-0.0467,-0.045,-0.0422,-0.042,-0.0384,-0.0374,-0.0351,-0.0329,-0.0332,-0.0296,-0.0285,-0.0284,-0.0311,-0.0313,-0.0315,-0.0321,-0.0306,0,0,0,0,0,-0.0649,-0.0625,-0.0581,-0.0562,-0.0548,-0.0511,-0.0495,-0.0474,-0.0442,-0.043,-0.04,-0.037,-0.0344,-0.0327,-0.03,-0.0279,-0.0269,-0.0272,-0.0274,-0.0276,-0.0275,-0.0263,-0.0264,-0.0252,-0.0252,-0.0252,0,0,-0.0658,-0.0627,-0.0614,-0.0568,-0.0543,-0.052,-0.05,-0.0477,-0.0459,-0.0426,-0.0399,-0.0376,-0.0341,-0.0316,-0.0304,-0.0298,-0.0276,-0.0276,-0.0278,-0.0276,-0.0263,-0.0265,-0.0266,-0.0252,-0.0252,-0.0252,0,0,-0.0664,-0.0637,-0.0619,-0.0595,-0.0558,-0.0533,-0.0529,-0.0486,-0.047,-0.0442,-0.0417,-0.0396,-0.0351,-0.0327,-0.0309,-0.0308,-0.029,-0.03,-0.0311,-0.03,-0.0301,-0.0301,-0.0302,-0.0302,-0.0299,-0.0299,-0.0299,0,-0.0681,-0.0644,-0.0612,-0.059,-0.0572,-0.0541,-0.0523,-0.0501,-0.0457,-0.0445,-0.0438,-0.0382,-0.0356,-0.0326,-0.0326,-0.0312,-0.0307,-0.0305,-0.0303,-0.0304,-0.0304,-0.0303,-0.0304,-0.0301,-0.0301,-0.0301,-0.03,0,-0.0667,-0.0643,-0.0633,-0.0591,-0.0571,-0.0552,-0.0517,-0.0501,-0.0482,-0.0459,-0.0431,-0.0399,-0.0366,-0.0357,-0.0339,-0.0325,-0.0322,-0.031,-0.0299,-0.0307,-0.0306,-0.0306,-0.0303,-0.0303,-0.0302,-0.0302,0,0,-0.0692,-0.0634,-0.0631,-0.0612,-0.0569,-0.055,-0.053,-0.0497,-0.0484,-0.0455,-0.0438,-0.0401,-0.039,-0.037,-0.0348,-0.0338,-0.034,-0.0327,-0.0326,-0.0331,-0.0324,-0.0334,-0.0334,-0.0328,-0.0328,-0.0328,-0.0327,0,-0.0692,-0.0653,-0.0624,-0.0596,-0.0574,-0.0545,-0.0527,-0.05,-0.0477,-0.0455,-0.0431,-0.0406,-0.0392,-0.038,-0.0369,-0.0342,-0.0338,-0.0342,-0.0312,-0.0311,-0.0322,-0.0334,-0.0344,-0.0345,-0.0327,-0.0327,-0.0327,0,-0.0686,-0.0658,-0.0629,-0.0589,-0.0579,-0.0563,-0.0532,-0.0511,-0.048,-0.0464,-0.0443,-0.0421,-0.0398,-0.039,-0.0359,-0.0362,-0.0348,-0.0333,-0.0332,-0.0329,-0.0319,-0.0331,-0.0345,-0.0345,-0.0326,-0.0326,-0.0326,0,-0.0708,-0.0663,-0.064,-0.0625,-0.0578,-0.0568,-0.0548,-0.0517,-0.05,-0.0472,-0.0461,-0.0432,-0.0416,-0.0394,-0.0365,-0.0361,-0.0338,-0.0326,-0.0325,-0.0326,-0.0321,-0.0322,-0.0333,-0.0312,-0.0312,-0.0312,-0.0312,0,-0.071,-0.0693,-0.0649,-0.0635,-0.0615,-0.0583,-0.0565,-0.0543,-0.0515,-0.0497,-0.047,-0.0453,-0.0416,-0.0395,-0.0372,-0.0351,-0.0344,-0.0331,-0.0325,-0.0334,-0.0335,-0.0324,-0.0323,-0.0312,-0.0312,-0.0312,-0.0312,0,-0.0731,-0.0701,-0.0673,-0.0632,-0.0621,-0.0609,-0.0574,-0.0559,-0.0536,-0.0513,-0.0506,-0.0469,-0.0443,-0.0413,-0.0376,-0.0361,-0.0342,-0.0333,-0.0353,-0.0349,-0.035,-0.0351,-0.0355,-0.0354,-0.0333,-0.0333,-0.0334,0,-0.0735,-0.0721,-0.0679,-0.0665,-0.0646,-0.0623,-0.0606,-0.0574,-0.0557,-0.0521,-0.0511,-0.0483,-0.0459,-0.0419,-0.0389,-0.0362,-0.0353,-0.0356,-0.0348,-0.0357,-0.0353,-0.0355,-0.0354,-0.0358,-0.0359,-0.0359,-0.0359,0,-0.0745,-0.0731,-0.0707,-0.0678,-0.0658,-0.0634,-0.0609,-0.0599,-0.0562,-0.0544,-0.0518,-0.0499,-0.0463,-0.0436,-0.0405,-0.0385,-0.0366,-0.0362,-0.036,-0.0369,-0.0381,-0.0375,-0.0359,-0.0362,-0.0362,-0.0361,-0.0361,-0.0361,-0.0757,-0.0745,-0.0713,-0.0688,-0.0665,-0.0643,-0.0627,-0.0603,-0.058,-0.0548,-0.0531,-0.0505,-0.0475,-0.0432,-0.0412,-0.0392,-0.0385,-0.0383,-0.0382,-0.0382,-0.0385,-0.0384,-0.0386,-0.0386,-0.0386,-0.0386,-0.0386,0,-0.0767,-0.0745,-0.0722,-0.0688,-0.0669,-0.0653,-0.0624,-0.0609,-0.0587,-0.056,-0.0538,-0.0508,-0.0482,-0.0451,-0.0423,-0.0413,-0.0404,-0.0407,-0.0407,-0.0403,-0.0392,-0.0397,-0.0415,-0.0415,-0.0415,-0.0415,-0.0415,-0.0415,-0.0769,-0.0747,-0.073,-0.0697,-0.0675,-0.065,-0.0635,-0.0614,-0.0593,-0.0561,-0.054,-0.052,-0.0492,-0.0462,-0.0438,-0.043,-0.0421,-0.0427,-0.0416,-0.0406,-0.0404,-0.0401,-0.0405,-0.0425,-0.0425,-0.0428,-0.0428,-0.0429]},{"header":{"parameterUnit":"m.s-1","parameterCategory":1,"la1":30.2991,"la2":30.254,"lo1":-89.0895,"lo2":-89.0444,"dy":0.0017,"dx":0.0017,"nx":28,"ny":28,"refTime":"2024-07-23T09:00:00:Z","depth":0,"parameterNumber":3,"parameterNumberName":"V-component_of_WINDS"},"data":[0,0,0,0,0,0,0,0,0,0,0,0,0,0,0,0,0,0,0,0,0,0,0,0,0,0,0,0,0,0,0,0,0,0,0,0,0,0,0,0,0,0,0,0,0,0,0,0,0,0,0,0,0,0,0,0,0,0,4.6202,4.6202,0,4.628,4.6281,4.6282,4.6257,4.6256,4.6254,4.6253,4.6329,4.6333,4.6336,0,0,0,0,0,0,0,0,0,0,0,0,0,4.6025,4.6029,4.6201,4.6203,4.6204,4.628,4.6281,4.6282,4.6258,4.6256,4.6254,4.6252,4.6328,4.6332,4.6336,0,0,0,0,0,0,0,0,0,0,0,0,0,4.6103,4.603,4.6201,4.6201,4.6201,4.628,4.6281,4.6283,4.6258,4.6256,4.6253,4.6251,4.6326,4.6332,4.6337,4.642,0,0,4.6353,4.6356,0,0,0,0,0,0,0,0,4.6098,4.6109,4.62,4.6201,4.6202,4.6257,4.6247,4.6329,4.6259,4.6236,4.6252,4.625,4.6307,4.6314,4.6334,4.6424,4.6427,4.6354,4.6357,4.636,4.6361,0,0,0,0,0,0,0,4.6093,4.6106,4.6233,4.6201,4.6202,4.6195,4.6203,4.6263,4.6284,4.6238,4.6237,4.6246,4.6307,4.6329,4.6335,4.6428,4.6354,4.6359,4.6362,4.6364,4.6589,4.6592,0,0,0,0,0,0,4.6087,4.6101,4.623,4.6235,4.6143,4.62,4.6209,4.6241,4.6284,4.6288,4.6249,4.6245,4.6321,4.6329,4.6338,4.6437,4.6359,4.6365,4.6368,4.6586,4.659,4.6593,0,0,0,0,0,0,4.6084,4.6099,4.6227,4.6168,4.6183,4.6206,4.6242,4.6244,4.6266,4.6292,4.6295,4.6267,4.6319,4.633,4.64,4.644,4.6367,4.6372,4.6583,4.6587,4.6591,4.6637,0,0,0,0,0,0,4.6079,4.6098,4.6131,4.6169,4.6187,4.6289,4.6245,4.6248,4.6276,4.6272,4.631,4.6314,4.6318,4.6392,4.6405,4.6446,4.6376,4.658,4.6585,4.659,4.6632,4.6642,4.6651,0,0,0,0,0,4.6073,4.614,4.6133,4.6148,4.6229,4.6291,4.6302,4.6306,4.6279,4.6312,4.6328,4.6313,4.6433,4.6399,4.6414,4.6457,4.6577,4.6583,4.6589,4.6628,4.664,4.6651,0,0,0,0,0,0,4.6105,4.6145,4.6137,4.6219,4.6252,4.6287,4.6328,4.6319,4.636,4.6354,4.6357,4.6365,4.6437,4.6454,4.6415,4.6539,4.6501,4.651,4.6525,4.6537,4.6546,4.654,4.638,0,0,0,0,0,4.6122,4.6171,4.6203,4.6272,4.6289,4.6306,4.6333,4.6334,4.6368,4.6381,4.6403,4.6435,4.648,4.651,4.6552,4.6635,4.6642,4.6671,4.668,4.6688,4.6696,4.674,4.6753,4.6613,4.6613,4.6613,0,0,4.6156,4.6185,4.6215,4.6279,4.6305,4.6354,4.6318,4.6372,4.6408,4.6389,4.6456,4.6473,4.6509,4.6585,4.662,4.6601,4.6736,4.6696,4.6702,4.6706,4.6747,4.6761,4.6772,4.6617,4.6616,4.6616,0,0,4.6245,4.6272,4.6332,4.6359,4.6399,4.641,4.6424,4.6461,4.6472,4.6539,4.6526,4.6569,4.6646,4.6672,4.6696,4.6794,4.6781,4.6808,4.6857,4.69,4.6911,4.692,4.6955,4.6967,4.6816,4.6816,4.6816,0,4.6283,4.6359,4.6364,4.6419,4.6447,4.6434,4.6494,4.6519,4.657,4.6589,4.6568,4.6666,4.6689,4.6771,4.6795,4.6814,4.683,4.6804,4.6909,4.6919,4.6928,4.6961,4.6974,4.6819,4.6819,4.6818,4.6818,0,4.6403,4.6455,4.6499,4.655,4.6583,4.664,4.6653,4.6685,4.6683,4.6696,4.6764,4.6792,4.684,4.6859,4.6857,4.6941,4.6928,4.6908,4.687,4.6944,4.6975,4.6987,4.6823,4.6822,4.6821,4.6821,0,0,4.6513,4.6567,4.6583,4.6606,4.6649,4.6689,4.6745,4.6794,4.6821,4.6856,4.6903,4.6969,4.6951,4.6978,4.6978,4.7016,4.7091,4.6991,4.6992,4.7008,4.7183,4.7197,4.7212,4.7083,4.7085,4.7087,4.718,0,4.6605,4.6706,4.6712,4.6802,4.685,4.6838,4.6887,4.6918,4.6931,4.6972,4.6986,4.7033,4.7006,4.7022,4.7059,4.7074,4.7126,4.7068,4.7125,4.7127,4.7115,4.7228,4.7243,4.7329,4.7192,4.7194,4.7196,0,4.6725,4.6766,4.6862,4.6898,4.6918,4.6962,4.7007,4.7047,4.7081,4.7088,4.7118,4.7113,4.7169,4.713,4.7206,4.7167,4.719,4.7201,4.7205,4.7209,4.7165,4.7235,4.7357,4.737,4.7215,4.7213,4.7212,0,4.6796,4.6874,4.6942,4.6962,4.7005,4.7036,4.7056,4.7088,4.7116,4.7155,4.7173,4.7217,4.7241,4.7274,4.7281,4.7252,4.7358,4.7319,4.7364,4.7363,4.7386,4.7384,4.7512,4.7402,4.7402,4.7402,4.7402,0,4.6897,4.6955,4.6974,4.7015,4.708,4.7086,4.715,4.7167,4.7195,4.7238,4.723,4.7271,4.7278,4.7319,4.7325,4.7387,4.7398,4.7404,4.7405,4.7404,4.7404,4.7419,4.7413,4.7405,4.7405,4.7404,4.7403,0,4.6986,4.7001,4.7073,4.7109,4.7119,4.7166,4.7195,4.7234,4.7247,4.7302,4.7315,4.7334,4.7382,4.7393,4.745,4.7453,4.7527,4.7522,4.7516,4.7515,4.7559,4.7554,4.7701,4.772,4.7598,4.76,4.7601,0,4.7049,4.7094,4.7135,4.7165,4.7186,4.7233,4.7262,4.727,4.73,4.7343,4.7376,4.7424,4.7463,4.754,4.7558,4.7602,4.7597,4.7646,4.7604,4.7602,4.7597,4.7594,4.7598,4.7654,4.7655,4.7656,4.7657,0,4.716,4.7165,4.7208,4.7255,4.729,4.7326,4.7361,4.7385,4.7397,4.7431,4.7482,4.7512,4.7571,4.7618,4.7662,4.768,4.767,4.767,4.7683,4.7683,4.7677,4.768,4.7537,4.7667,4.7666,4.7665,4.7664,4.7664,4.7237,4.7276,4.7312,4.736,4.7387,4.742,4.7458,4.7476,4.7518,4.7568,4.7569,4.7624,4.7656,4.7714,4.7735,4.7777,4.7761,4.778,4.7784,4.7788,4.7792,4.7671,4.7785,4.7784,4.7784,4.7784,4.7784,0,4.7346,4.7369,4.7413,4.7463,4.75,4.749,4.7527,4.7559,4.7608,4.764,4.7678,4.7736,4.7781,4.7803,4.7848,4.7877,4.7874,4.7889,4.7886,4.789,4.7803,4.7788,4.7891,4.7891,4.7891,4.7891,4.7891,4.7891,4.7408,4.7474,4.7483,4.7562,4.7583,4.7638,4.766,4.7689,4.7714,4.778,4.7818,4.7833,4.786,4.7907,4.7948,4.7953,4.7969,4.7986,4.7989,4.7907,4.7897,4.7886,4.7871,4.799,4.799,4.8072,4.8073,4.8074]}]]